Погода в Лытке

Россия / Кировская область     58°33′50″N   53°00′30″E
темп.,
°C
ветер,
м/с
пор.,
м/с
влажн.,
%
обл.,
%
осадки,
мм/ч
давл.,
гПа
погр.,
м
11 мая, вт
вт1100:00+13сз3787100 0.2 1024225
03:00+12св1397100 0.6 1025148
06:00+12с359199 0.1 1027346
09:00+13с238144 0.1 1028419
12:00+17с226330 0.0 1028899
15:00+18с336093 0.0 10281064
18:00+17с246433 0.0 1029217
21:00+12св22845 0.0 103022
12 мая, ср
ср1200:00+10св228881 0.0 103122
03:00+9всв119078 0.0 103111
06:00+13всв22625 0.0 1031197
09:00+19в11405 0.0 1031791
12:00+23вюв11304 0.0 10301354
15:00+23з112930 0.0 10281610
18:00+20сз01454 0.0 102811
21:00+15ссв11585 0.0 102911
13 мая, чт
чт1300:00+13в116126 0.0 102910
03:00+12в11640 0.0 102910
06:00+17вюв11530 0.0 1029109
09:00+23ю12380 0.0 1028804
12:00+25юз233527 0.0 10272364
15:00+25юз243499 0.0 10262393
18:00+23юз1148100 0.0 102518
21:00+18ююз256091 0.0 102596
14 мая, пт
пт1400:00+15ююз236295 0.0 102559
03:00+14ююз23645 0.0 102546
06:00+17ююз245536 0.0 1025172
09:00+23ююз35435 0.0 1024808
12:00+25ююз573394 0.0 10231935
15:00+26ююз5830100 0.0 10222062
18:00+23юз374694 0.0 1020219
21:00+18ююз2769100 0.0 1021141
15 мая, сб
сб1500:00+16юз31074100 0.0 1020247
03:00+15юз278761 0.4 1020140
06:00+18юз357219 0.0 1020234
09:00+23юз365265 0.0 1019786
12:00+26юз58385 0.0 10191728
15:00+27зюз583314 0.0 10181830
18:00+24юз38455 0.0 1017466
21:00+18ююз312655 0.0 1017253